False Pass, AK

2:20 AM HDT on September 21, 2017 (GMT -0900)
False Pass

Weather History for PAKF - January, 2013

Change the Weather History Date:

Tuesday, January 8, 2013

  Actual Average (PACD) Record (PACD)
Temperature  
Mean Temperature 32 °F -  
Max Temperature 39 °F 33 °F 43 °F (1960)
Min Temperature 26 °F 25 °F 4 °F (1943)
Degree Days  
Heating Degree Days 32    
Moisture  
Dew Point 31 °F    
Average Humidity 82    
Maximum Humidity 96    
Minimum Humidity 62    
Precipitation  
Precipitation 1.10 in - - ()
Sea Level Pressure  
Sea Level Pressure 30.16 in    
Wind  
Wind Speed 13 mph (SSE)    
Max Wind Speed 29 mph    
Max Gust Speed 39 mph    
Visibility 7 miles    
Events Rain , Snow    
Averages and records for this station are not official NWS values.
T = Trace of Precipitation, MM = Missing Value Source: NWS Daily Summary

Daily Weather History Graph

Daily Weather History Graph

Search for Another Location

Airport or City:

Trip Planner

Search our weather history database for the weather conditions in past years. The results will help you decide how hot, cold, wet, or windy it might be!

Date:

Astronomy

Jan. 08, 2013 Rise Set
Actual Time 9:14 AM HST 4:47 PM HST
Civil Twilight 8:30 AM HST 5:31 PM HST
Nautical Twilight 7:43 AM HST 6:17 PM HST
Astronomical Twilight 7:00 AM HST 7:01 PM HST
Moon 5:59 AM HST (1/8) 2:01 PM HST (1/8)
Length of Visible Light 9h 00m
Length of Day
7h 33m
Waning Crescent, 12% of the Moon is Illuminated
Jan 8
Waning Crescent
Jan 11
New
Jan 18
First Quarter
Jan 26
Full
Feb 3
Last Quarter

Hourly Weather History & Observations

Time (HST) Temp. Windchill Dew Point Humidity Pressure Visibility Wind Dir Wind Speed Gust Speed Precip Events Conditions
12:01 AM 35.1 °F 28.6 °F 25.0 °F 67% 30.02 in 10.0 mi WSW 8.1 mph 20.7 mph 0.00 in   Scattered Clouds
1:01 AM 36.0 °F 30.3 °F 24.1 °F 62% 30.03 in 10.0 mi SW 6.9 mph 19.6 mph N/A   Mostly Cloudy
2:01 AM 34.0 °F - 23.0 °F 64% 30.33 in 10.0 mi Calm Calm - N/A   Scattered Clouds
3:01 AM 32.0 °F 28.7 °F 21.0 °F 64% 30.34 in 10.0 mi SW 3.5 mph - N/A   Partly Cloudy
4:01 AM 30.0 °F 26.5 °F 21.0 °F 69% 30.35 in 10.0 mi SSE 3.5 mph - N/A   Partly Cloudy
5:01 AM 26.1 °F 18.4 °F 19.0 °F 75% 30.35 in 10.0 mi South 6.9 mph - N/A   Clear
6:01 AM 30.9 °F 20.7 °F 23.0 °F 72% 30.32 in 10.0 mi SE 13.8 mph - N/A   Partly Cloudy
8:01 AM 37.0 °F 28.1 °F 26.1 °F 65% 30.32 in 10.0 mi South 15.0 mph 23.0 mph N/A   Scattered Clouds
9:01 AM 37.9 °F 27.1 °F 27.0 °F 65% 30.30 in 10.0 mi SSE 23.0 mph 36.8 mph N/A   Scattered Clouds
10:01 AM 37.0 °F 27.7 °F 28.9 °F 73% 30.33 in 10.0 mi South 16.1 mph 25.3 mph N/A   Overcast
11:01 AM 37.0 °F 25.9 °F 30.9 °F 79% 30.32 in 10.0 mi SSE 23.0 mph 26.5 mph N/A   Overcast
11:34 AM 37.4 °F 26.9 °F 32.0 °F 81% 30.03 in 10.0 mi SSE 20.7 mph 36.8 mph 0.00 in   Overcast
11:47 AM 37.4 °F 28.5 °F 33.8 °F 87% 30.02 in 10.0 mi SSE 15.0 mph 29.9 mph 0.00 in Rain Light Rain
11:56 AM 37.4 °F 26.1 °F 32.0 °F 81% 30.03 in 9.0 mi SSE 24.2 mph 27.6 mph 0.00 in Rain Light Rain
12:01 PM 37.0 °F 26.2 °F 32.0 °F 82% 30.31 in 8.0 mi SSE 21.9 mph 28.8 mph 0.00 in Rain Light Rain
12:49 PM 37.4 °F 27.2 °F 32.0 °F 81% 30.00 in 7.0 mi SSE 19.6 mph 29.9 mph 0.01 in Rain Light Rain
12:58 PM 37.4 °F 27.2 °F 33.8 °F 87% 29.99 in 8.0 mi SSE 19.6 mph 27.6 mph 0.02 in Rain Light Rain
1:01 PM 37.0 °F 29.3 °F 33.1 °F 86% 30.27 in 8.0 mi SSE 11.5 mph 27.6 mph 0.02 in Rain Light Rain
2:01 PM 37.0 °F 26.2 °F 34.0 °F 89% 30.26 in 7.0 mi SSE 21.9 mph 34.5 mph 0.02 in Rain Light Rain
3:01 PM 37.9 °F 25.9 °F 34.0 °F 86% 30.22 in 3.0 mi SSE 28.8 mph 38.0 mph 0.06 in Rain Light Rain
4:01 PM 35.6 °F 24.5 °F 33.8 °F 93% 29.94 in 2.5 mi SSE 20.7 mph 27.6 mph 0.12 in   Overcast
4:29 PM 35.6 °F 30.7 °F 33.8 °F 93% 29.95 in 1.8 mi SE 5.8 mph - 0.21 in Snow Light Snow
4:37 PM 35.1 °F 32.2 °F 34.0 °F 96% 30.23 in 1.2 mi Variable 3.5 mph - 0.23 in Snow Light Snow
4:44 PM 35.6 °F - 33.8 °F 93% 29.94 in 1.5 mi Calm Calm - 0.01 in Snow Light Snow
5:01 PM 37.0 °F 27.0 °F 35.1 °F 93% 30.21 in 1.8 mi SE 18.4 mph 24.2 mph 0.12 in Snow Light Snow
5:45 PM 37.4 °F 26.6 °F 35.6 °F 93% 29.91 in 4.0 mi SSE 21.9 mph 34.5 mph 0.21 in Rain Light Rain
6:01 PM 39.0 °F 28.0 °F 36.0 °F 89% 30.19 in 5.0 mi SSE 25.3 mph 39.1 mph 0.26 in Rain Light Rain
7:01 PM 39.0 °F 28.3 °F 36.0 °F 89% 30.18 in 6.0 mi SSE 24.2 mph 38.0 mph 0.08 in Rain Light Rain
7:28 PM 39.2 °F 27.8 °F 37.4 °F 93% 29.89 in 4.0 mi SE 27.6 mph 39.1 mph 0.05 in Rain Rain
9:01 PM 39.0 °F 29.3 °F 37.0 °F 93% 30.17 in 6.0 mi SSE 19.6 mph 32.2 mph 0.11 in Rain Rain
10:01 PM 39.0 °F 29.0 °F 37.0 °F 93% 30.15 in 5.0 mi SSE 20.7 mph 29.9 mph 0.12 in Rain Rain
11:01 PM 39.0 °F 28.8 °F 37.0 °F 93% 30.14 in 5.0 mi SSE 21.9 mph 32.2 mph 0.08 in Rain Light Rain